| time (UTC) | temp F | wind direction | speed knots | gust knots | rain 1hr in | rain 24hr in | rain mn in | humidity % | barometer mb |
| 20260504223056 | 55 | 198 | 7.0 | 14.8 | 0.00 | 0.00 | 0.00 | 84 | 1011.9 |
| 20260504221540 | 56 | 196 | 7.8 | 16.5 | 0.00 | 0.00 | 0.00 | 83 | 1012.0 |
| 20260504220040 | 56 | 144 | 8.7 | 20.9 | 0.00 | 0.00 | 0.00 | 82 | 1012.1 |
| 20260504214539 | 56 | 231 | 7.8 | 20.0 | 0.00 | 0.00 | 0.00 | 81 | 1012.0 |
| 20260504213050 | 57 | 183 | 7.8 | 18.2 | 0.00 | 0.00 | 0.00 | 80 | 1012.1 |
| 20260504211538 | 57 | 216 | 8.7 | 17.4 | 0.00 | 0.00 | 0.00 | 80 | 1012.1 |
| 20260504210040 | 57 | 181 | 9.6 | 20.0 | 0.00 | 0.00 | 0.00 | 78 | 1012.1 |
| 20260504204544 | 58 | 215 | 10.4 | 17.4 | 0.00 | 0.00 | 0.00 | 77 | 1012.0 |
| 20260504203041 | 58 | 193 | 9.6 | 16.5 | 0.00 | 0.00 | 0.00 | 77 | 1012.0 |
| 20260504201534 | 58 | 208 | 9.6 | 15.6 | 0.00 | 0.00 | 0.00 | 76 | 1012.0 |
| 20260504200034 | 59 | 178 | 8.7 | 20.9 | 0.00 | 0.00 | 0.00 | 76 | 1012.3 |
| 20260504194532 | 59 | 216 | 9.6 | 16.5 | 0.00 | 0.00 | 0.00 | 75 | 1012.4 |
| 20260504193030 | 59 | 196 | 10.4 | 17.4 | 0.00 | 0.00 | 0.00 | 75 | 1012.6 |
| 20260504191529 | 58 | 173 | 9.6 | 19.1 | 0.00 | 0.00 | 0.00 | 76 | 1012.7 |
| 20260504190028 | 59 | 225 | 10.4 | 21.7 | 0.00 | 0.00 | 0.00 | 75 | 1012.8 |
| 20260504184527 | 59 | 196 | 11.3 | 17.4 | 0.00 | 0.00 | 0.00 | 74 | 1012.9 |
| 20260504183024 | 59 | 196 | 8.7 | 17.4 | 0.00 | 0.00 | 0.00 | 74 | 1013.1 |
| 20260504181521 | 59 | 185 | 8.7 | 17.4 | 0.00 | 0.00 | 0.00 | 74 | 1013.2 |
| 20260504180020 | 59 | 210 | 9.6 | 18.2 | 0.00 | 0.00 | 0.00 | 74 | 1013.4 |
| 20260504174518 | 59 | 208 | 8.7 | 15.6 | 0.00 | 0.00 | 0.00 | 76 | 1013.5 |
| 20260504173015 | 59 | 189 | 7.8 | 19.1 | 0.00 | 0.00 | 0.00 | 76 | 1013.5 |
| 20260504171513 | 59 | 160 | 8.7 | 16.5 | 0.00 | 0.00 | 0.00 | 76 | 1013.7 |
| 20260504081507 | 50 | 218 | 3.5 | 7.8 | 0.00 | 0.00 | 0.00 | 69 | 1015.0 |
| 20260504044556 | 50 | 238 | 4.3 | 8.7 | 0.00 | 0.00 | 0.00 | 73 | 1014.1 |
| 20260504043050 | 51 | 251 | 2.6 | 7.8 | 0.00 | 0.00 | 0.00 | 72 | 1014.1 |
| 20260504041543 | 51 | 241 | 2.6 | 8.7 | 0.00 | 0.00 | 0.00 | 69 | 1014.1 |
| 20260504040054 | 52 | 178 | 1.7 | 7.0 | 0.00 | 0.00 | 0.00 | 66 | 1014.0 |
| 20260504034551 | 51 | 253 | 2.6 | 7.8 | 0.00 | 0.00 | 0.00 | 67 | 1013.9 |
| 20260504033037 | 52 | 231 | 2.6 | 7.8 | 0.00 | 0.00 | 0.00 | 70 | 1013.8 |
| 20260504031535 | 53 | 210 | 1.7 | 7.0 | 0.00 | 0.00 | 0.00 | 65 | 1013.8 |
| 20260504030037 | 52 | 224 | 3.5 | 7.8 | 0.00 | 0.00 | 0.00 | 66 | 1013.7 |
| 20260504024535 | 52 | 254 | 3.5 | 7.0 | 0.00 | 0.00 | 0.00 | 67 | 1013.7 |
| 20260504023034 | 53 | 237 | 1.7 | 6.1 | 0.00 | 0.00 | 0.00 | 65 | 1013.9 |
| 20260504021532 | 52 | 236 | 1.7 | 6.1 | 0.00 | 0.00 | 0.00 | 64 | 1013.8 |
| 20260504020033 | 53 | 223 | 1.7 | 3.5 | 0.00 | 0.00 | 0.00 | 62 | 1013.8 |
| 20260504014530 | 53 | 255 | 1.7 | 6.1 | 0.00 | 0.00 | 0.00 | 61 | 1013.7 |
| 20260504013033 | 54 | 248 | 0.9 | 3.5 | 0.00 | 0.00 | 0.00 | 56 | 1013.5 |
| 20260504011527 | 54 | 239 | 1.7 | 5.2 | 0.00 | 0.00 | 0.00 | 50 | 1013.4 |
| 20260504010025 | 55 | 260 | 0.0 | 1.7 | 0.00 | 0.00 | 0.00 | 39 | 1013.1 |
| 20260504004524 | 56 | 260 | 0.0 | 1.7 | 0.00 | 0.00 | 0.00 | 37 | 1012.9 |
| 20260504003022 | 56 | 261 | 0.9 | 2.6 | 0.00 | 0.00 | 0.00 | 36 | 1012.8 |
| 20260504001520 | 57 | 243 | 0.9 | 4.3 | 0.00 | 0.00 | 0.00 | 35 | 1012.5 |
| 20260504000020 | 58 | 295 | 3.5 | 8.7 | 0.00 | 0.00 | 0.00 | 34 | 1012.4 |
| 20260503234519 | 58 | 279 | 4.3 | 10.4 | 0.00 | 0.00 | 0.00 | 33 | 1012.3 |
| 20260503233019 | 59 | 297 | 6.1 | 12.2 | 0.00 | 0.00 | 0.00 | 32 | 1012.1 |
| 20260503231521 | 60 | 293 | 7.0 | 13.0 | 0.00 | 0.00 | 0.00 | 30 | 1011.9 |
| 20260503230022 | 60 | 312 | 7.8 | 16.5 | 0.00 | 0.00 | 0.00 | 30 | 1011.8 |
| 20260503224516 | 60 | 277 | 9.6 | 20.9 | 0.00 | 0.00 | 0.00 | 30 | 1011.7 |